Temperature
32 31 31 31 32 32 32 32 31 32 34 33 32 32 32 31 31 30 29 29 28 27 26 24 24 23 22 21 20 20 20 20 19 19 19 19 19 19 19 19 19 19 19 18
31 31 32 33 33 33 32 31 32 32 33 33 32 32 32 32 31 31 30 29 28 27 26 25 24 23 22 21 21 20 20 20 19 19 19 19 19 19 19 19 19 18 18 18
31 32 33 33 33 32 32 32 31 32 32 33 32 31 31 32 31 31 30 30 29 28 26 25 24 23 22 21 21 20 20 20 19 19 19 19 19 19 19 19 18 18 18 18
32 33 33 33 33 33 32 33 33 32 31 31 31 29 30 31 31 31 30 30 29 28 27 25 24 24 23 22 21 20 20 20 19 19 19 19 19 19 19 18 18 18 18 18
32 33 33 33 33 33 33 34 33 33 32 31 31 30 30 31 30 31 31 30 29 28 27 26 25 24 23 22 21 20 20 20 20 19 19 19 19 19 19 18 18 18 18 18
33 34 34 34 34 34 34 33 33 32 32 30 31 30 29 30 30 30 30 29 28 28 27 26 25 24 23 23 21 21 20 20 20 19 19 19 19 19 19 18 18 18 18 18
32 33 34 34 34 34 33 32 30 30 30 30 32 31 30 31 31 31 30 29 28 28 27 26 25 24 23 22 22 21 20 20 20 19 19 19 19 19 18 18 18 18 18 18
31 32 33 34 34 33 33 32 30 29 29 30 31 30 30 31 31 31 30 29 28 28 27 26 25 24 23 22 22 21 20 20 19 19 19 19 19 18 18 18 18 18 18 18
31 32 34 34 35 34 32 32 32 31 31 30 30 30 31 31 31 31 30 29 29 28 27 26 25 24 23 22 21 21 20 20 19 19 19 19 19 18 18 18 18 18 18 17
32 31 33 34 35 34 34 33 32 31 29 28 29 29 29 29 30 30 30 29 29 28 27 26 25 24 23 23 22 21 20 20 19 19 19 19 19 18 18 18 18 18 18 18
33 31 32 33 33 33 33 33 32 31 30 29 28 29 30 29 30 30 30 29 28 28 27 26 25 24 23 23 22 21 20 20 19 19 19 19 18 18 18 18 18 18 17 17
33 32 30 32 34 34 34 33 33 31 29 30 29 29 31 30 31 30 29 28 27 27 26 25 24 24 23 23 22 21 21 20 20 19 19 19 18 18 18 17 17 17 17 17
32 31 29 30 32 33 33 33 33 33 31 30 29 29 31 31 30 29 28 27 27 26 26 25 24 23 22 22 21 21 21 20 20 19 19 18 18 18 17 17 17 17 17 17
31 31 30 29 30 31 31 32 33 32 30 29 30 29 30 30 29 28 27 27 26 25 25 24 23 22 22 21 21 21 20 20 20 19 19 18 18 18 17 17 17 17 16 16
32 30 30 31 31 31 31 32 32 32 31 30 30 30 29 29 29 28 27 26 26 25 24 24 23 22 21 21 20 20 20 20 19 19 19 18 18 18 17 17 17 17 16 16
31 30 29 30 31 31 31 31 32 31 31 31 30 29 29 28 28 27 26 26 26 25 24 23 22 21 21 20 20 20 19 19 19 19 18 18 18 17 17 17 17 16 16 16
30 29 28 29 30 30 29 31 31 31 31 30 29 29 29 28 27 27 26 26 25 24 23 23 22 21 20 20 20 19 19 19 19 18 18 18 17 17 17 16 16 16 16 16
29 28 28 28 28 27 29 31 31 30 30 30 29 29 28 28 27 26 25 25 25 24 23 22 21 21 20 20 19 19 19 18 18 18 17 17 17 16 16 16 16 16 16 15
30 28 27 27 27 28 29 30 31 29 28 29 29 29 28 27 26 25 25 24 24 23 22 21 21 20 20 19 19 18 18 18 18 17 17 16 16 16 16 16 16 16 15 15
29 28 27 27 26 26 28 29 30 29 27 28 28 28 27 27 26 25 24 23 23 22 22 21 20 20 19 19 18 18 17 17 17 17 16 16 16 15 15 15 15 15 15 15
27 27 27 27 26 27 28 29 29 27 26 27 27 27 26 25 25 24 23 22 22 21 21 20 19 19 19 18 18 17 17 17 16 16 16 16 15 15 15 15 15 15 15 15
27 27 26 26 26 25 27 27 26 25 25 25 25 25 24 24 23 23 22 21 21 20 20 19 18 18 18 17 17 17 16 16 16 15 15 15 15 15 15 15 15 15 14 14
27 27 26 26 25 25 25 25 25 24 24 24 24 24 23 23 22 22 21 20 20 19 19 18 18 17 17 17 16 16 16 16 15 15 15 15 14 14 14 14 14 14 14 14
26 27 26 25 26 25 25 24 24 23 23 23 23 23 22 22 21 21 20 20 19 19 18 18 17 17 16 16 16 16 15 15 15 15 15 14 14 14 14 14 14 14 14 14
24 25 25 24 24 24 23 23 23 23 22 22 22 22 21 21 21 20 19 19 18 18 17 17 16 16 16 16 16 15 15 15 14 14 14 14 14 14 14 14 14 14 14 14
24 24 24 23 23 23 22 22 22 22 21 21 21 21 21 20 20 19 18 18 17 17 16 16 16 16 15 15 15 15 14 14 14 14 14 14 14 14 14 14 14 14 14 14
Wind_Speed
10 7 6 4 4 6 5 4 2 3 2 2 1 2 4 6 6 7 7 7 7 8 8 8 8 8 8 7 6 5 4 3 1 1 1 0 0 1 1 2 2 2 2 3
9 8 7 4 5 6 5 5 4 3 4 3 2 1 3 5 6 6 7 7 7 8 9 8 7 8 8 8 7 6 4 3 2 1 1 1 0 0 2 2 2 1 2 2
10 5 5 7 6 7 6 4 5 5 6 6 4 3 4 5 5 6 6 6 7 7 8 9 8 7 8 8 7 6 5 4 2 1 1 0 1 1 1 2 1 1 2 2
8 7 7 7 7 7 6 4 7 7 8 6 5 3 2 6 5 6 6 6 6 7 7 8 8 7 7 8 8 7 6 4 3 2 1 1 1 1 1 1 1 1 2 1
8 7 7 8 6 6 6 6 9 10 8 8 6 3 2 6 5 4 5 5 6 6 7 8 8 7 7 8 8 8 6 5 3 2 1 1 1 1 1 1 1 0 1 1
10 9 7 7 7 7 7 8 10 10 8 8 7 3 2 3 4 4 5 6 6 5 6 6 7 7 7 8 8 9 8 6 4 3 2 2 0 1 1 1 1 0 1 1
10 10 9 7 9 7 7 7 6 6 5 5 4 2 3 5 5 5 5 6 6 6 5 6 6 7 6 7 8 8 8 7 5 4 2 2 1 0 0 1 1 1 1 1
10 8 8 8 8 7 7 7 6 7 7 6 4 0 4 5 6 7 7 7 6 6 7 7 7 7 6 6 7 7 8 7 6 5 3 2 1 1 1 1 2 1 1 1
9 7 6 7 8 8 7 7 8 9 9 6 4 1 5 6 6 7 6 6 6 6 6 7 7 7 7 6 7 7 6 6 6 5 4 3 2 1 1 1 1 2 2 1
8 9 8 8 8 9 8 8 7 6 6 6 4 3 1 3 4 5 5 5 5 6 6 7 6 6 6 6 6 6 7 6 6 5 5 4 3 2 2 1 0 1 2 2
9 9 9 8 9 9 8 8 6 5 6 6 6 1 3 2 4 4 5 6 6 5 6 6 7 6 5 6 7 6 6 6 5 5 5 3 3 3 2 1 0 0 1 1
7 7 10 10 8 9 10 9 8 6 6 8 7 1 4 2 4 6 5 6 6 6 6 6 6 6 4 4 4 5 4 6 6 5 4 3 2 2 2 1 1 0 0 1
5 6 8 9 7 7 9 10 10 8 7 7 6 1 4 4 6 7 6 6 7 6 6 6 6 5 5 4 4 2 2 3 4 4 4 3 2 1 1 1 0 0 0 0
5 9 10 11 7 7 11 12 10 8 7 7 6 3 2 4 6 6 6 6 7 6 6 5 6 5 5 4 3 3 2 2 3 3 3 3 2 2 2 1 1 0 0 0
7 11 12 12 11 11 13 14 11 9 9 8 5 3 1 4 6 6 6 6 6 5 5 5 5 5 5 4 3 3 2 3 3 3 2 2 1 1 1 0 0 0 1 1
7 9 12 14 14 13 13 14 12 11 9 8 5 2 4 5 6 5 4 3 4 4 5 5 5 4 4 4 3 3 2 2 3 2 2 2 1 1 1 0 0 0 0 1
7 9 11 13 13 13 13 10 9 7 7 6 5 3 5 4 4 3 3 2 4 4 4 4 4 3 3 3 3 3 3 3 3 3 3 2 1 1 1 1 0 0 1 1
8 8 8 11 11 13 7 5 5 5 5 3 3 1 5 3 4 4 4 3 3 4 4 3 2 3 4 4 4 3 4 4 4 3 3 3 3 3 2 2 2 1 1 2
8 7 8 9 12 11 8 7 6 3 6 4 4 3 3 4 3 4 4 3 3 4 4 3 3 3 3 3 4 4 3 3 3 3 3 2 2 2 3 3 2 2 2 2
10 8 9 10 12 12 6 6 7 4 3 2 3 4 4 2 1 3 4 5 5 5 4 4 4 4 3 3 4 3 2 2 2 2 2 2 1 1 1 1 2 2 2 3
10 11 13 13 12 7 5 7 8 6 1 4 5 5 5 4 3 4 5 6 5 4 4 5 4 3 3 3 3 2 2 2 2 1 1 1 1 1 1 1 2 2 3 3
10 10 10 11 11 7 7 6 3 2 5 5 6 6 5 5 4 5 5 5 4 4 4 4 4 4 3 2 2 2 2 2 1 1 1 1 1 2 1 1 2 3 3 4
7 5 4 4 4 1 4 4 4 4 4 5 6 6 4 4 4 4 4 3 3 3 3 3 3 3 3 3 2 1 1 1 1 1 1 1 2 1 1 2 3 3 3 3
4 4 4 3 2 1 3 3 4 5 5 5 5 4 3 3 3 3 3 3 3 3 2 2 2 2 2 2 2 2 1 1 1 1 2 2 2 2 2 2 2 2 3 3
6 5 4 4 2 2 3 4 4 4 4 5 5 4 2 2 1 2 2 2 2 2 2 2 1 1 1 1 1 2 2 1 2 2 3 3 3 2 1 1 2 1 1 1
7 4 4 4 3 4 3 3 4 3 4 4 5 4 3 2 2 2 2 2 2 2 1 1 1 1 1 1 1 1 1 1 2 3 4 3 3 2 2 1 1 2 1 2
Wind_Direction
248 247 263 267 255 277 302 307 308 305 302 263 246 184 171 166 166 158 163 161 161 155 152 149 150 144 139 137 133 130 124 113 111 88 105 184 76 100 106 106 91 67 18 10
257 246 258 269 256 272 277 280 282 280 285 271 262 234 201 176 168 159 156 157 154 149 146 145 153 154 150 147 144 139 144 141 144 138 193 183 74 328 110 77 89 61 42 5
252 262 266 267 271 277 277 287 290 287 289 267 250 240 202 174 159 154 156 151 151 157 157 157 159 162 158 152 152 152 145 147 151 168 196 216 131 44 73 110 101 99 74 53
253 253 257 267 271 272 281 285 272 269 277 277 264 265 190 161 156 155 154 152 151 153 152 157 159 162 164 157 155 143 142 145 155 163 223 198 134 99 73 103 103 99 80 65
255 247 250 263 277 295 296 287 279 279 275 278 250 250 195 167 155 149 147 147 150 150 149 153 158 159 163 159 155 148 143 147 150 165 185 202 59 60 68 64 57 95 95 65
261 257 250 262 270 272 282 282 277 274 269 264 255 246 206 174 148 139 135 128 131 137 139 144 149 150 160 156 155 152 145 151 161 175 176 162 150 11 46 44 3 301 97 47
255 250 243 246 258 259 271 285 289 285 266 265 262 221 141 137 135 130 127 131 133 132 131 133 132 135 145 149 151 147 147 156 165 167 167 168 188 192 349 304 264 282 73 62
259 248 227 231 249 271 265 273 285 299 301 298 297 169 112 121 120 121 126 124 123 124 124 129 130 133 135 141 143 142 147 157 160 158 159 155 168 235 268 297 307 348 21 76
264 260 225 227 240 254 266 272 279 280 286 293 313 33 121 115 117 118 117 120 119 121 120 126 127 128 136 141 144 148 151 157 161 164 163 162 179 231 303 318 318 352 354 26
263 276 259 252 245 241 255 277 293 295 303 299 294 274 157 148 131 128 126 123 117 116 122 123 124 127 133 136 135 145 158 160 165 167 179 179 184 202 229 258 196 7 1 8
262 272 270 253 248 257 256 256 262 283 297 301 292 306 131 164 140 120 120 118 104 104 110 117 119 116 121 129 141 154 157 159 169 177 176 183 177 194 199 214 242 138 347 353
259 268 275 265 264 270 264 272 273 275 278 276 284 289 132 124 105 96 105 110 103 103 103 104 111 109 110 108 124 144 159 174 172 172 169 179 173 177 185 196 243 140 36 337
293 267 266 265 253 250 261 272 275 278 280 285 288 265 124 110 93 98 94 105 104 99 97 98 99 96 87 79 76 117 166 159 167 165 157 152 159 169 213 235 232 174 216 314
268 260 262 268 280 292 282 276 274 284 287 287 294 274 138 104 100 99 98 99 102 100 102 98 102 100 93 85 78 68 71 110 122 139 150 145 162 180 208 227 231 212 254 248
255 263 270 275 276 275 282 284 279 274 275 279 271 274 136 123 119 116 114 108 108 103 96 90 93 95 92 88 82 71 59 77 96 110 114 117 146 168 184 162 177 114 284 275
252 270 279 278 278 275 276 273 279 284 286 284 258 211 97 84 91 100 104 113 123 108 102 102 94 99 103 99 88 85 74 80 96 100 94 89 82 82 70 82 63 86 283 307
255 263 273 274 278 280 270 268 273 285 302 296 287 120 112 95 113 126 130 124 102 94 90 86 100 107 112 112 100 97 111 102 87 80 77 73 73 68 55 351 42 317 286 292
252 269 267 272 278 267 273 290 287 308 318 311 327 92 122 118 107 106 102 93 90 106 101 89 102 109 116 112 101 95 92 89 85 79 69 51 36 36 38 29 26 5 321 300
236 242 259 266 265 264 263 280 292 293 304 336 333 353 66 92 103 92 80 84 95 105 102 98 106 106 102 108 108 102 95 90 87 80 70 53 36 28 29 21 359 337 310 300
231 228 246 258 264 271 276 301 301 288 251 10 9 22 27 9 300 78 65 63 62 73 86 88 90 91 90 92 101 102 96 88 69 62 46 29 17 17 13 354 319 317 305 289
229 231 240 253 261 268 297 311 297 273 287 2 12 25 30 30 26 59 63 64 58 66 73 78 81 80 72 72 90 104 96 85 74 53 5 18 352 314 321 314 305 306 303 297
241 240 241 251 256 260 344 336 340 14 37 24 18 28 41 48 51 70 64 64 61 70 72 68 71 72 69 69 76 84 65 50 49 12 0 357 294 289 309 312 300 295 288 281
244 258 259 258 256 42 41 36 46 60 44 31 17 13 39 57 59 73 69 70 66 66 71 71 78 80 65 57 55 68 55 34 14 345 313 298 300 319 302 271 274 276 280 293
258 303 287 269 240 304 23 26 25 34 37 26 9 360 17 55 56 90 87 71 63 55 73 82 79 79 61 49 29 35 42 21 351 302 283 272 261 261 277 289 301 328 339 337
301 298 293 282 283 341 348 349 6 20 18 9 353 355 21 56 76 89 95 83 69 76 62 72 86 72 34 32 22 31 19 2 332 297 277 266 259 258 277 313 331 5 5 336
284 295 287 293 327 314 311 341 6 360 345 347 343 349 12 53 78 67 77 69 72 77 83 65 60 50 23 13 1 17 7 343 302 282 270 259 255 245 235 210 302 340 267 202
Height
1486 1487 1488 1484 1482 1480 1480 1484 1486 1480 1472 1475 1479 1481 1480 1482 1484 1487 1491 1494 1498 1501 1505 1507 1508 1509 1509 1510 1511 1511 1512 1512 1513 1513 1514 1515 1515 1515 1515 1516 1516 1515 1515 1515
1486 1487 1479 1477 1476 1476 1480 1485 1484 1478 1472 1474 1478 1480 1477 1478 1482 1485 1489 1492 1495 1499 1503 1505 1507 1509 1509 1509 1510 1511 1511 1512 1513 1513 1514 1515 1515 1516 1516 1516 1515 1515 1515 1515
1486 1480 1475 1476 1478 1481 1481 1483 1484 1481 1475 1471 1478 1485 1480 1477 1480 1484 1487 1490 1493 1497 1500 1503 1506 1507 1508 1509 1509 1510 1511 1512 1513 1513 1514 1515 1515 1516 1516 1516 1515 1515 1515 1515
1480 1474 1474 1476 1477 1477 1483 1474 1475 1477 1482 1485 1481 1499 1485 1479 1480 1482 1485 1488 1491 1494 1498 1501 1504 1506 1507 1508 1509 1510 1511 1511 1512 1513 1514 1514 1515 1515 1516 1516 1516 1515 1515 1514
1477 1473 1474 1477 1473 1472 1475 1470 1471 1472 1478 1485 1480 1491 1489 1478 1483 1481 1483 1486 1489 1493 1495 1498 1501 1503 1505 1507 1508 1509 1510 1511 1512 1513 1513 1514 1515 1515 1516 1516 1516 1516 1515 1514
1473 1469 1469 1471 1469 1469 1469 1470 1471 1472 1478 1497 1482 1488 1497 1482 1481 1480 1482 1485 1489 1491 1494 1497 1499 1502 1504 1506 1507 1508 1509 1510 1511 1512 1513 1514 1514 1515 1515 1515 1515 1515 1515 1514
1476 1470 1467 1467 1470 1469 1470 1481 1496 1500 1499 1495 1474 1481 1488 1475 1474 1477 1481 1484 1488 1490 1493 1496 1498 1501 1503 1504 1506 1507 1508 1509 1510 1511 1512 1513 1514 1515 1515 1515 1515 1515 1515 1514
1484 1482 1467 1465 1469 1473 1472 1479 1501 1513 1509 1493 1478 1486 1481 1472 1474 1476 1480 1484 1487 1490 1492 1495 1498 1500 1502 1504 1506 1507 1508 1509 1510 1511 1511 1512 1513 1514 1514 1515 1515 1515 1514 1513
1481 1479 1462 1461 1462 1465 1473 1475 1472 1485 1488 1495 1490 1482 1475 1471 1474 1476 1480 1483 1486 1489 1492 1495 1497 1500 1501 1503 1505 1506 1507 1508 1509 1510 1511 1512 1512 1513 1513 1513 1514 1513 1513 1513
1470 1480 1466 1460 1461 1460 1465 1468 1474 1486 1503 1510 1500 1494 1489 1479 1478 1477 1480 1483 1486 1489 1492 1494 1497 1499 1501 1502 1504 1505 1506 1507 1509 1509 1510 1511 1511 1512 1512 1512 1512 1512 1511 1511
1465 1476 1472 1465 1467 1468 1466 1469 1472 1479 1485 1503 1509 1499 1476 1477 1476 1477 1479 1483 1486 1489 1492 1494 1497 1499 1501 1502 1503 1504 1505 1506 1507 1508 1509 1509 1510 1510 1511 1511 1510 1510 1510 1509
1464 1472 1480 1469 1459 1457 1460 1463 1467 1484 1490 1487 1493 1494 1469 1472 1473 1477 1480 1483 1487 1489 1492 1495 1497 1499 1501 1502 1503 1503 1505 1506 1506 1507 1508 1508 1509 1509 1509 1509 1509 1509 1508 1508
1468 1475 1489 1483 1473 1464 1463 1460 1460 1464 1475 1484 1493 1490 1469 1472 1474 1478 1482 1484 1487 1490 1493 1495 1497 1499 1500 1502 1502 1503 1505 1505 1506 1506 1507 1507 1508 1508 1508 1508 1507 1507 1506 1506
1470 1474 1483 1491 1482 1473 1471 1464 1461 1466 1479 1485 1483 1481 1473 1473 1477 1481 1483 1485 1487 1491 1493 1495 1497 1499 1500 1501 1502 1503 1504 1504 1504 1505 1506 1506 1506 1506 1506 1506 1506 1505 1505 1504
1467 1474 1472 1470 1466 1467 1468 1465 1462 1466 1470 1476 1477 1475 1474 1474 1477 1481 1483 1486 1488 1491 1493 1495 1497 1498 1500 1501 1501 1502 1503 1503 1504 1504 1505 1505 1505 1505 1504 1504 1504 1503 1503 1503
1467 1474 1475 1475 1467 1465 1468 1464 1462 1463 1464 1466 1469 1474 1472 1475 1477 1482 1484 1487 1489 1491 1493 1495 1496 1498 1499 1499 1500 1501 1501 1502 1502 1503 1503 1503 1503 1503 1503 1502 1502 1502 1501 1501
1469 1475 1481 1481 1470 1470 1475 1464 1462 1464 1463 1467 1472 1473 1472 1476 1479 1482 1485 1486 1488 1491 1493 1494 1496 1497 1498 1499 1499 1499 1500 1501 1501 1501 1502 1502 1501 1501 1501 1501 1500 1500 1500 1499
1472 1477 1479 1481 1481 1493 1472 1457 1458 1463 1464 1464 1467 1468 1472 1476 1478 1481 1484 1486 1489 1491 1492 1494 1495 1496 1497 1497 1498 1499 1499 1499 1500 1500 1500 1500 1500 1499 1499 1499 1499 1498 1498 1497
1467 1475 1481 1483 1487 1480 1468 1460 1460 1466 1472 1467 1469 1470 1472 1475 1478 1482 1484 1486 1488 1490 1492 1493 1494 1495 1496 1497 1497 1498 1498 1498 1499 1499 1499 1499 1499 1498 1498 1497 1497 1497 1496 1495
1465 1470 1479 1481 1489 1491 1473 1463 1461 1465 1476 1471 1471 1472 1474 1475 1480 1484 1485 1486 1488 1490 1491 1493 1494 1494 1495 1496 1496 1496 1497 1497 1498 1498 1498 1497 1497 1497 1496 1496 1495 1495 1494 1493
1472 1474 1478 1480 1483 1478 1467 1465 1464 1477 1481 1474 1473 1474 1476 1478 1481 1485 1486 1487 1489 1490 1491 1492 1493 1494 1494 1495 1495 1495 1496 1496 1496 1496 1496 1496 1496 1495 1495 1494 1493 1493 1492 1491
1470 1474 1476 1477 1483 1485 1469 1468 1473 1477 1475 1475 1476 1477 1478 1480 1481 1483 1486 1487 1489 1490 1491 1492 1492 1493 1494 1494 1494 1494 1494 1495 1495 1495 1495 1494 1494 1494 1494 1493 1492 1491 1490 1489
1465 1468 1470 1474 1478 1474 1473 1474 1475 1475 1477 1478 1479 1479 1480 1481 1482 1484 1486 1488 1490 1491 1491 1492 1492 1493 1493 1494 1494 1493 1493 1493 1493 1493 1493 1493 1492 1492 1492 1491 1490 1489 1488 1487
1466 1466 1468 1471 1470 1472 1473 1475 1476 1476 1478 1479 1480 1480 1480 1481 1483 1484 1486 1488 1490 1491 1491 1491 1491 1492 1493 1493 1493 1492 1492 1492 1491 1491 1491 1491 1490 1490 1490 1489 1488 1487 1486 1485
1470 1468 1469 1472 1472 1472 1475 1476 1476 1476 1477 1479 1480 1480 1480 1481 1483 1485 1486 1488 1489 1490 1490 1490 1490 1491 1491 1491 1491 1491 1490 1490 1489 1489 1489 1489 1489 1488 1487 1487 1486 1485 1484 1484
1470 1471 1473 1474 1475 1475 1476 1476 1476 1477 1478 1478 1479 1479 1480 1481 1482 1484 1485 1487 1488 1489 1489 1489 1489 1490 1490 1490 1489 1489 1489 1488 1488 1487 1487 1487 1487 1486 1485 1485 1484 1483 1482 1481